Wind_Speed
14 15 15 15 15 16 16 16 16 17 17 18 18 18 19 19 19 19 20 21 21 22 22 22 22 21 21 22 22 23 23 23 23 22 22 23 23 23
15 15 16 16 16 16 16 17 17 18 17 18 19 19 19 19 20 20 21 21 22 23 23 23 23 23 22 22 22 22 22 22 23 23 23 23 24 24
16 17 17 17 17 18 18 18 18 19 19 19 19 20 20 20 21 22 21 21 22 23 23 23 23 23 23 22 22 22 23 23 23 24 25 25 26 26
18 18 18 18 18 19 19 19 19 19 19 19 20 21 21 21 22 22 22 22 22 22 21 22 22 22 22 22 22 23 23 24 24 24 25 26 27 26
19 19 19 19 19 19 19 20 19 19 20 20 20 21 22 22 22 22 22 22 22 21 20 20 21 22 22 22 23 23 23 24 25 26 26 26 27 27
19 19 19 19 19 19 20 20 20 21 21 21 21 21 22 22 22 22 22 22 21 21 20 21 21 22 22 23 24 24 24 24 24 25 26 27 27 27
20 20 20 20 20 20 21 21 21 22 22 22 22 22 22 22 22 22 22 22 21 20 20 20 20 21 22 23 24 24 24 25 25 26 26 26 27 27
21 21 21 21 20 20 21 21 22 22 23 23 22 22 22 22 22 21 20 20 20 20 20 20 20 21 21 22 23 24 24 24 25 26 26 26 27 28
22 22 21 21 21 21 21 21 22 22 22 23 23 22 22 22 22 21 21 20 20 20 20 20 21 21 21 22 23 23 24 25 26 26 27 27 28 28
24 24 24 23 22 22 22 23 23 23 23 23 23 23 23 23 22 22 21 21 21 21 21 21 21 22 22 23 23 24 24 25 26 27 28 28 28 29
26 26 25 25 25 25 24 24 24 24 24 24 24 24 24 24 23 22 22 22 22 22 22 23 23 23 23 23 24 25 25 26 26 27 28 28 29 29
27 27 26 27 27 27 27 26 26 25 26 26 25 25 25 25 24 24 23 23 22 22 23 23 24 24 24 24 25 26 26 27 27 27 27 28 29 29
26 26 26 27 27 28 28 28 28 27 27 27 27 26 26 25 25 25 24 24 24 24 24 24 24 25 25 25 26 26 27 27 28 28 29 29 29 30
27 27 27 27 28 28 28 29 29 29 29 28 27 26 26 26 25 25 25 25 25 25 25 25 25 26 27 26 26 27 27 28 28 29 29 29 29 29
28 28 28 29 29 29 29 29 29 29 29 28 28 27 26 26 26 25 26 26 26 25 25 26 27 27 28 28 27 27 28 29 29 29 29 29 29 29
29 29 29 29 29 30 30 30 30 29 29 28 28 27 26 26 26 26 26 26 26 26 26 27 28 28 28 28 28 28 28 29 29 30 30 29 29 28
30 30 30 30 31 31 31 30 30 29 29 28 27 26 26 27 26 26 26 27 27 27 27 27 28 28 28 28 28 28 28 28 29 29 29 28 27 27
31 31 31 31 31 31 31 30 29 29 29 28 27 27 27 27 27 27 28 28 28 28 28 28 28 27 28 28 29 29 29 28 28 28 27 27 27 27
33 32 32 32 32 32 32 30 29 29 29 29 28 28 28 28 28 28 28 29 29 29 29 29 28 28 28 29 29 29 28 28 28 27 27 27 27 26
33 33 33 32 32 32 31 30 29 28 28 28 29 29 29 29 29 29 29 29 30 29 29 28 28 28 29 29 29 28 28 28 27 27 27 27 27 26
34 34 34 33 32 31 30 30 29 29 29 30 30 30 29 29 29 29 29 30 30 29 29 28 28 29 29 29 28 27 27 27 27 27 28 28 27 26
35 34 34 33 32 31 31 30 30 30 30 31 30 30 29 29 29 29 29 29 29 29 29 29 29 29 29 29 29 28 28 28 28 28 28 27 27 26
33 33 33 32 31 31 31 31 31 31 31 30 29 30 30 30 30 30 29 29 29 29 29 30 29 29 29 29 29 28 28 28 28 27 27 26 26 26
Wind_Direction
305 304 304 303 302 298 294 293 291 291 291 290 291 291 290 289 288 287 284 283 283 280 279 279 277 276 276 275 275 273 273 275 275 275 278 279 281 282
303 303 302 301 302 302 299 294 291 292 292 293 292 291 292 292 290 289 287 285 284 282 280 279 278 278 277 276 277 277 276 278 276 276 277 278 280 281
300 299 298 299 298 300 299 298 296 294 294 293 294 295 293 292 294 293 291 288 286 283 281 280 278 278 277 276 276 276 277 278 278 278 277 277 278 279
299 297 298 299 298 299 297 297 297 295 294 294 294 294 294 293 295 295 293 292 289 286 284 281 279 278 276 276 277 279 279 280 280 280 279 277 278 279
301 298 299 300 299 298 298 299 299 297 296 296 295 295 295 293 293 293 293 291 289 288 286 283 282 279 278 280 281 281 282 281 281 281 281 281 279 278
304 302 302 301 301 301 301 301 300 299 299 298 298 297 297 296 295 293 293 291 289 288 286 283 280 279 280 282 283 283 282 282 282 282 282 282 282 280
305 304 303 301 301 300 301 301 300 300 299 299 299 299 299 299 297 294 291 290 291 290 287 285 284 283 282 281 282 282 282 282 281 282 283 284 285 285
303 300 299 299 300 300 300 300 300 299 298 297 298 298 297 297 297 296 292 292 293 292 291 291 292 291 288 286 284 284 284 285 285 285 285 287 289 289
304 300 298 298 300 300 299 301 301 301 298 296 296 296 296 295 295 298 297 293 294 294 293 293 294 292 291 290 288 288 288 289 288 288 289 289 288 288
301 300 297 296 297 297 298 298 300 301 299 297 296 296 295 295 294 293 295 293 293 294 293 294 294 294 294 293 291 291 291 291 290 290 290 290 288 287
300 298 295 295 296 295 296 297 297 298 298 297 295 294 294 293 292 291 290 290 291 292 292 293 293 293 293 293 293 293 292 292 293 292 291 290 290 289
299 297 295 296 296 295 294 294 294 294 294 294 293 292 292 291 290 289 289 289 289 290 292 293 294 293 293 292 293 293 292 293 294 293 292 291 290 290
297 298 297 297 297 296 295 294 293 293 293 292 290 289 289 289 290 289 288 289 289 290 291 292 293 293 293 293 293 294 294 293 294 295 294 293 292 291
295 297 297 297 296 296 295 294 294 292 292 292 289 288 287 288 288 288 288 289 289 290 291 291 292 293 294 293 293 293 293 294 294 295 295 294 293 292
295 297 297 296 296 296 295 294 293 292 292 291 289 286 285 286 285 286 287 289 290 291 291 292 293 293 293 294 293 294 295 294 295 294 294 294 294 294
295 296 296 295 295 295 295 294 292 292 292 291 288 286 284 284 284 285 287 288 289 291 292 292 293 294 295 296 296 297 297 296 296 295 295 295 295 295
295 294 293 293 294 294 294 293 292 291 291 290 288 285 283 283 283 283 285 287 289 290 290 292 293 294 295 297 298 299 300 299 298 298 297 298 297 297
295 295 293 292 292 293 293 291 290 290 289 288 287 285 283 282 281 282 284 286 288 290 291 291 292 293 295 297 298 300 301 301 301 299 298 299 298 298
294 294 293 292 291 291 291 290 288 288 287 286 285 284 282 281 281 282 283 285 287 289 290 291 291 292 295 297 297 299 299 300 299 299 298 299 298 298
293 294 293 292 291 291 291 289 287 286 285 285 284 284 282 281 281 281 282 283 285 287 288 289 290 291 292 294 296 296 296 297 298 298 299 300 299 299
292 293 293 292 291 290 289 287 285 285 284 284 283 282 281 281 281 280 281 282 283 284 286 287 288 290 291 293 294 295 296 297 296 297 299 300 299 298
292 292 292 290 289 288 287 286 285 284 282 282 281 280 280 280 280 280 281 282 282 283 283 284 286 289 290 291 292 294 296 296 296 296 298 299 299 299
292 292 292 291 290 289 287 285 284 283 282 281 280 279 279 278 279 279 280 281 281 281 282 284 286 288 288 288 290 293 294 294 294 294 295 297 299 299
Height
5861 5860 5859 5858 5857 5856 5855 5853 5853 5852 5851 5850 5849 5847 5846 5845 5844 5843 5842 5842 5841 5840 5840 5839 5839 5838 5838 5837 5837 5837 5837 5837 5836 5836 5836 5836 5835 5835
5858 5857 5855 5854 5853 5852 5851 5849 5848 5847 5847 5846 5844 5843 5841 5840 5839 5838 5837 5836 5835 5834 5834 5833 5833 5832 5832 5831 5831 5831 5831 5830 5830 5829 5829 5829 5829 5828
5854 5853 5851 5850 5849 5848 5846 5845 5844 5843 5842 5841 5839 5838 5836 5834 5833 5832 5831 5830 5829 5828 5827 5827 5826 5826 5825 5825 5825 5825 5824 5824 5823 5823 5822 5822 5821 5821
5850 5848 5847 5846 5845 5843 5842 5840 5839 5838 5837 5835 5834 5832 5831 5829 5828 5826 5825 5823 5822 5822 5821 5820 5820 5819 5819 5819 5819 5818 5817 5817 5816 5815 5815 5814 5814 5813
5845 5844 5843 5841 5840 5838 5837 5835 5834 5833 5831 5830 5829 5827 5825 5824 5822 5821 5819 5818 5816 5815 5814 5814 5813 5813 5812 5812 5812 5811 5810 5810 5809 5808 5807 5806 5806 5805
5841 5839 5838 5836 5835 5833 5832 5830 5829 5828 5826 5825 5823 5821 5820 5818 5816 5814 5813 5812 5811 5810 5808 5808 5807 5806 5806 5805 5805 5804 5803 5802 5801 5800 5799 5799 5797 5797
5837 5835 5833 5831 5830 5828 5827 5825 5824 5822 5821 5819 5817 5816 5814 5812 5810 5809 5807 5806 5805 5804 5802 5802 5800 5799 5799 5798 5797 5796 5796 5795 5794 5793 5792 5790 5789 5788
5832 5830 5828 5826 5825 5823 5822 5820 5818 5817 5815 5813 5812 5810 5808 5806 5804 5803 5801 5800 5799 5798 5797 5796 5795 5793 5792 5791 5790 5789 5788 5787 5786 5785 5783 5782 5780 5779
5827 5825 5823 5821 5819 5818 5816 5814 5812 5811 5809 5807 5806 5804 5802 5800 5799 5797 5795 5794 5793 5792 5791 5789 5788 5787 5786 5785 5783 5782 5781 5779 5778 5777 5775 5774 5772 5770
5821 5819 5818 5816 5814 5812 5810 5808 5806 5804 5802 5801 5799 5798 5796 5794 5793 5791 5789 5788 5787 5786 5784 5784 5782 5781 5779 5778 5776 5775 5773 5772 5770 5769 5767 5765 5763 5762
5815 5813 5811 5809 5808 5805 5803 5802 5800 5798 5796 5794 5792 5791 5789 5787 5786 5785 5783 5782 5781 5780 5778 5777 5776 5774 5772 5771 5769 5768 5766 5764 5762 5760 5758 5756 5755 5753
5808 5806 5804 5802 5800 5798 5796 5794 5793 5791 5789 5787 5785 5784 5782 5781 5779 5778 5777 5775 5774 5773 5772 5770 5768 5767 5766 5764 5762 5760 5758 5756 5754 5752 5750 5748 5746 5744
5801 5799 5796 5794 5792 5791 5789 5787 5785 5783 5781 5780 5778 5777 5775 5774 5772 5771 5770 5768 5767 5766 5765 5763 5761 5759 5758 5756 5754 5752 5750 5748 5746 5743 5741 5739 5736 5734
5793 5791 5789 5787 5785 5782 5780 5779 5776 5774 5773 5771 5770 5769 5768 5766 5765 5764 5762 5761 5760 5759 5757 5755 5754 5752 5750 5748 5746 5744 5742 5740 5738 5735 5732 5730 5727 5725
5785 5783 5781 5779 5776 5774 5772 5770 5768 5766 5764 5763 5762 5761 5760 5758 5757 5756 5755 5754 5752 5751 5749 5748 5746 5744 5742 5741 5738 5736 5734 5731 5729 5726 5724 5721 5719 5716
5776 5774 5772 5770 5768 5766 5763 5761 5759 5757 5756 5754 5753 5752 5751 5750 5749 5748 5747 5746 5745 5744 5742 5740 5738 5736 5734 5732 5730 5728 5726 5723 5721 5718 5715 5713 5710 5708
5767 5765 5763 5761 5759 5757 5755 5753 5751 5749 5747 5746 5745 5744 5743 5742 5742 5741 5739 5738 5737 5736 5734 5732 5730 5728 5726 5724 5722 5720 5717 5715 5712 5709 5707 5704 5702 5699
5759 5757 5754 5752 5750 5748 5746 5744 5742 5740 5739 5738 5736 5735 5735 5734 5734 5733 5731 5730 5729 5728 5726 5724 5722 5720 5718 5716 5714 5711 5709 5707 5704 5701 5698 5696 5694 5691
5749 5747 5745 5743 5741 5738 5736 5734 5733 5731 5730 5729 5728 5727 5726 5725 5725 5724 5723 5722 5721 5719 5717 5716 5714 5712 5710 5708 5706 5703 5701 5698 5696 5693 5691 5688 5686 5683
5740 5738 5736 5734 5731 5729 5726 5725 5723 5722 5721 5720 5719 5718 5717 5716 5715 5715 5714 5713 5712 5710 5709 5707 5705 5704 5702 5700 5697 5695 5692 5690 5687 5685 5683 5680 5678 5675
5730 5728 5726 5723 5721 5719 5717 5716 5714 5713 5712 5711 5710 5708 5707 5707 5706 5705 5704 5703 5702 5701 5700 5699 5697 5695 5693 5691 5689 5687 5684 5681 5679 5677 5675 5672 5670 5667
5721 5718 5716 5713 5711 5709 5708 5706 5705 5704 5702 5701 5700 5699 5698 5698 5697 5696 5695 5694 5693 5692 5691 5690 5688 5686 5684 5683 5681 5679 5677 5674 5671 5669 5666 5664 5662 5659
5711 5708 5706 5703 5701 5700 5698 5696 5695 5694 5693 5692 5690 5690 5689 5688 5688 5687 5686 5685 5684 5683 5682 5681 5679 5678 5676 5674 5672 5670 5668 5666 5663 5660 5659 5656 5654 5651